Weather History for Rickenbacker, OH

Change the Weather History Date:

Wednesday, October 23, 2013

  Actual Average Record
Temperature  
Mean Temperature 42 °F -  
Max Temperature 47 °F 61 °F 80 °F (2012)
Min Temperature 37 °F 42 °F 24 °F (1997)
Degree Days  
Heating Degree Days 23    
Moisture  
Dew Point 35 °F    
Average Humidity 78    
Maximum Humidity 86    
Minimum Humidity 53    
Precipitation  
Precipitation 0.00 in - - ()
Sea Level Pressure  
Sea Level Pressure 29.88 in    
Wind  
Wind Speed 7 mph (NW)    
Max Wind Speed 24 mph    
Max Gust Speed 29 mph    
Visibility 8 miles    
Events Rain    
Averages and records for this station are not official NWS values.
T = Trace of Precipitation, MM = Missing Value Source: NWS Daily Summary

Daily Weather History Graph

Daily Weather History Graph

Search for Another Location

Airport:

Trip Planner

Search our weather history database for the weather conditions in past years. The results will help you decide how hot, cold, wet, or windy it might be!

Date:

Astronomy

Oct. 23, 2013 Rise Set
Actual Time 7:50 AM EDT 6:40 PM EDT
Civil Twilight 7:23 AM EDT 7:08 PM EDT
Nautical Twilight 6:51 AM EDT 7:39 PM EDT
Astronomical Twilight 6:20 AM EDT 8:10 PM EDT
Moon 10:11 PM EDT (10/23) 12:06 PM EDT (10/23)
Length of Visible Light 11h 44m
Length of Day
10h 49m
Waning Gibbous, 79% of the Moon is Illuminated
Oct 23
Waning Gibbous
Oct 26
Last Quarter
Nov 3
New
Nov 10
First Quarter
Nov 17
Full

Hourly Weather History & Observations

Time (EDT) Temp. Windchill Dew Point Humidity Pressure Visibility Wind Dir Wind Speed Gust Speed Precip Events Conditions
12:15 AM 43.2 °F 41.5 °F 36.0 °F 76% 29.88 in 10.0 mi NNW 3.5 mph - N/A Rain Light Rain
12:35 AM 42.8 °F 41.1 °F 36.0 °F 77% 29.87 in 10.0 mi North 3.5 mph - N/A Rain Light Rain
12:55 AM 42.8 °F 41.1 °F 35.6 °F 76% 29.86 in 10.0 mi NNE 3.5 mph - N/A Rain Light Rain
1:15 AM 42.3 °F 39.4 °F 36.3 °F 79% 29.85 in 10.0 mi ENE 4.6 mph - N/A Rain Light Rain
1:35 AM 42.1 °F 38.4 °F 37.2 °F 83% 29.84 in 10.0 mi ENE 5.8 mph - N/A Rain Rain
1:55 AM 41.9 °F 38.2 °F 37.0 °F 83% 29.84 in 10.0 mi ENE 5.8 mph - N/A Rain Light Rain
2:15 AM 41.7 °F 38.8 °F 36.7 °F 82% 29.83 in 10.0 mi ENE 4.6 mph - N/A Rain Light Rain
2:35 AM 41.5 °F 39.6 °F 36.7 °F 83% 29.83 in 10.0 mi ENE 3.5 mph - N/A Rain Light Rain
2:55 AM 41.4 °F 37.6 °F 36.9 °F 84% 29.82 in 10.0 mi ENE 5.8 mph - N/A   Drizzle
3:15 AM 41.4 °F 36.8 °F 37.0 °F 85% 29.81 in 10.0 mi NE 6.9 mph - N/A Rain Light Rain
3:35 AM 41.4 °F 37.6 °F 37.0 °F 85% 29.80 in 7.0 mi NE 5.8 mph - N/A Rain Rain
3:55 AM 41.2 °F 36.6 °F 37.0 °F 85% 29.79 in 7.0 mi ENE 6.9 mph - N/A Rain Rain
4:15 AM 41.0 °F 37.1 °F 37.2 °F 86% 29.78 in 7.0 mi ENE 5.8 mph - N/A Rain Rain
4:35 AM 41.0 °F 35.8 °F 36.9 °F 85% 29.78 in 7.0 mi ENE 8.1 mph - N/A Rain Light Rain
4:55 AM 40.8 °F 34.5 °F 36.5 °F 85% 29.78 in 5.0 mi NE 10.4 mph - N/A Rain Light Rain
5:15 AM 40.8 °F 36.2 °F 36.5 °F 85% 29.77 in 5.0 mi NE 6.9 mph - N/A Rain Rain
5:35 AM 40.8 °F 36.2 °F 36.7 °F 85% 29.78 in 5.0 mi NE 6.9 mph - N/A Rain Rain
5:55 AM 40.3 °F 34.4 °F 36.5 °F 86% 29.78 in 4.0 mi NNE 9.2 mph - N/A Rain Rain
6:15 AM 39.6 °F 34.0 °F 35.1 °F 84% 29.78 in 4.0 mi NE 8.1 mph - N/A Rain Rain
6:35 AM 39.2 °F 33.0 °F 34.5 °F 83% 29.79 in 5.0 mi NNE 9.2 mph - N/A Rain Rain
6:55 AM 38.7 °F 33.6 °F 34.2 °F 84% 29.79 in 5.0 mi NE 6.9 mph - N/A Rain Light Rain
7:15 AM 38.1 °F 33.7 °F 33.8 °F 84% 29.79 in 4.0 mi NE 5.8 mph - N/A Rain Rain
7:35 AM 37.9 °F 35.5 °F 33.8 °F 85% 29.79 in 4.0 mi ENE 3.5 mph - N/A Rain Light Rain
7:55 AM 37.8 °F - 34.0 °F 86% 29.80 in 2.5 mi Calm Calm - N/A Rain Light Rain
8:35 AM 38.5 °F 32.7 °F 34.7 °F 86% 29.81 in 4.0 mi North 8.1 mph - N/A Rain Light Rain
8:55 AM 37.9 °F 32.7 °F 34.2 °F 86% 29.82 in 4.0 mi NNW 6.9 mph - N/A Rain Light Rain
9:15 AM 37.2 °F 30.6 °F 33.3 °F 86% 29.82 in 5.0 mi North 9.2 mph - N/A Rain Light Rain
9:35 AM 37.2 °F 31.2 °F 33.3 °F 86% 29.83 in 5.0 mi North 8.1 mph - N/A Rain Rain
9:55 AM 37.4 °F 32.1 °F 33.3 °F 85% 29.84 in 7.0 mi NNW 6.9 mph - N/A Rain Light Rain
10:15 AM 37.6 °F 33.1 °F 33.6 °F 86% 29.84 in 7.0 mi NW 5.8 mph - N/A Rain Rain
10:35 AM 38.1 °F 31.2 °F 34.3 °F 86% 29.84 in 7.0 mi NNW 10.4 mph - N/A Rain Light Rain
10:55 AM 39.0 °F 31.8 °F 35.2 °F 86% 29.84 in 7.0 mi NNW 11.5 mph - N/A   Overcast
11:15 AM 40.5 °F 34.1 °F 36.0 °F 84% 29.85 in 10.0 mi NNW 10.4 mph - N/A   Overcast
11:35 AM 41.2 °F 35.5 °F 36.0 °F 82% 29.85 in 10.0 mi NW 9.2 mph - N/A   Overcast
11:55 AM 41.4 °F 34.7 °F 35.8 °F 81% 29.86 in 10.0 mi NW 11.5 mph - N/A   Overcast
12:15 PM 42.3 °F 35.9 °F 36.1 °F 79% 29.87 in 10.0 mi NW 11.5 mph - N/A   Overcast
12:35 PM 42.6 °F 36.3 °F 36.1 °F 78% 29.87 in 10.0 mi NNW 11.5 mph - N/A   Overcast
12:55 PM 43.7 °F 37.7 °F 36.1 °F 75% 29.88 in 10.0 mi NW 11.5 mph - N/A   Overcast
1:15 PM 43.9 °F 38.3 °F 36.0 °F 74% 29.87 in 10.0 mi WNW 10.4 mph 16.1 mph N/A   Overcast
1:35 PM 44.1 °F 38.6 °F 35.8 °F 73% 29.88 in 10.0 mi WNW 10.4 mph - N/A   Overcast
1:55 PM 44.6 °F 37.8 °F 35.4 °F 70% 29.88 in 10.0 mi WNW 15.0 mph - N/A   Overcast
2:15 PM 45.0 °F 39.7 °F 34.2 °F 66% 29.88 in 10.0 mi NW 10.4 mph 16.1 mph N/A   Overcast
2:35 PM 45.1 °F 38.4 °F 34.0 °F 65% 29.88 in 10.0 mi WNW 15.0 mph - N/A   Overcast
2:55 PM 45.5 °F 38.9 °F 33.6 °F 63% 29.90 in 10.0 mi West 15.0 mph 18.4 mph N/A   Overcast
3:15 PM 45.3 °F 39.0 °F 32.5 °F 61% 29.90 in 10.0 mi NW 13.8 mph 20.7 mph N/A   Overcast
3:35 PM 46.4 °F 41.9 °F 31.6 °F 56% 29.90 in 10.0 mi WNW 9.2 mph - N/A   Overcast
3:55 PM 47.1 °F - 30.9 °F 53% 29.91 in 10.0 mi WNW 13.8 mph 19.6 mph N/A   Overcast
4:15 PM 46.0 °F 41.9 °F 30.9 °F 56% 29.91 in 10.0 mi WNW 8.1 mph - N/A   Overcast
4:35 PM 46.4 °F 43.5 °F 31.1 °F 55% 29.92 in 10.0 mi WNW 5.8 mph - N/A   Overcast
4:55 PM 46.0 °F 38.3 °F 31.8 °F 58% 29.93 in 10.0 mi WSW 20.7 mph 26.5 mph N/A   Overcast
5:15 PM 43.5 °F 36.4 °F 33.6 °F 68% 29.93 in 10.0 mi WSW 15.0 mph 18.4 mph N/A   Overcast
5:35 PM 44.4 °F 39.0 °F 33.8 °F 66% 29.94 in 10.0 mi West 10.4 mph - N/A   Scattered Clouds
5:55 PM 44.2 °F 40.3 °F 33.3 °F 65% 29.94 in 10.0 mi West 6.9 mph - N/A   Scattered Clouds
6:15 PM 43.3 °F 34.0 °F 33.8 °F 69% 29.96 in 10.0 mi West 24.2 mph 28.8 mph N/A   Drizzle
6:35 PM 40.3 °F 33.0 °F 33.4 °F 77% 29.97 in 4.0 mi West 12.7 mph 20.7 mph N/A Rain Light Rain
6:55 PM 40.3 °F 33.9 °F 34.5 °F 80% 29.97 in 10.0 mi West 10.4 mph - N/A   Overcast
7:15 PM 40.3 °F 34.9 °F 34.3 °F 79% 29.97 in 10.0 mi West 8.1 mph - N/A   Overcast
7:35 PM 40.1 °F 34.1 °F 34.7 °F 81% 29.98 in 10.0 mi West 9.2 mph - N/A   Overcast
7:55 PM 40.6 °F 33.8 °F 34.7 °F 79% 29.98 in 10.0 mi West 11.5 mph 17.3 mph N/A   Overcast
8:15 PM 41.0 °F 35.2 °F 34.3 °F 77% 29.98 in 10.0 mi West 9.2 mph - N/A   Overcast
8:35 PM 40.6 °F 35.4 °F 34.7 °F 79% 29.99 in 10.0 mi West 8.1 mph - N/A   Overcast
8:55 PM 40.5 °F 35.8 °F 34.9 °F 80% 29.99 in 10.0 mi West 6.9 mph - N/A   Overcast
9:15 PM 40.5 °F 35.8 °F 34.7 °F 80% 30.00 in 10.0 mi WSW 6.9 mph - N/A   Overcast
9:35 PM 39.6 °F 35.4 °F 34.2 °F 81% 30.00 in 10.0 mi WSW 5.8 mph - N/A   Overcast
9:55 PM 38.8 °F 35.4 °F 33.8 °F 82% 30.00 in 10.0 mi SW 4.6 mph - N/A   Overcast
10:15 PM 38.5 °F 35.0 °F 33.8 °F 83% 30.01 in 10.0 mi WSW 4.6 mph - N/A   Overcast
10:35 PM 37.6 °F 34.0 °F 33.3 °F 84% 30.01 in 10.0 mi WSW 4.6 mph - N/A   Overcast
10:55 PM 37.4 °F 33.8 °F 33.1 °F 84% 30.01 in 10.0 mi WSW 4.6 mph - N/A   Overcast
11:15 PM 37.4 °F 34.9 °F 32.9 °F 84% 30.01 in 10.0 mi WSW 3.5 mph - N/A   Overcast
11:35 PM 37.4 °F 33.8 °F 32.9 °F 84% 30.01 in 10.0 mi WSW 4.6 mph - N/A   Overcast
11:55 PM 37.8 °F 33.3 °F 33.1 °F 83% 30.01 in 10.0 mi WSW 5.8 mph - N/A   Overcast